Weather History for Branson, MO

Change the Weather History Date:

Friday, April 19, 2013

  Actual Average (KHRO) Record (KHRO)
Temperature  
Mean Temperature 44 °F 59 °F  
Max Temperature 53 °F 70 °F 90 °F (1987)
Min Temperature 35 °F 48 °F 26 °F (1953)
Degree Days  
Heating Degree Days 21 7  
Month to date heating degree days 178  
Since 1 July heating degree days 3858  
Cooling Degree Days 0 1  
Month to date cooling degree days 19  
Year to date cooling degree days 25  
Moisture  
Dew Point 24 °F    
Average Humidity 54    
Maximum Humidity 70    
Minimum Humidity 26    
Precipitation  
Precipitation 0.00 in 0.15 in 3.33 in (1959)
Month to date precipitation 2.53  
Year to date precipitation 11.52  
Snow  
Snow 0.00 in 0.00 in - ()
Month to date snowfall 0.3  
Since 1 July snowfall 11.5  
Snow Depth -    
Sea Level Pressure  
Sea Level Pressure 30.02 in    
Wind  
Wind Speed 11 mph (WNW)    
Max Wind Speed 17 mph    
Max Gust Speed 31 mph    
Visibility 10 miles    
Events Rain    
T = Trace of Precipitation, MM = Missing Value Source: NWS Daily Summary

Daily Weather History Graph

Daily Weather History Graph

Search for Another Location

Airport:

Trip Planner

Search our weather history database for the weather conditions in past years. The results will help you decide how hot, cold, wet, or windy it might be!

Date:

Astronomy

Apr. 19, 2013 Rise Set
Actual Time 6:33 AM CDT 7:50 PM CDT
Civil Twilight 6:06 AM CDT 8:17 PM CDT
Nautical Twilight 5:34 AM CDT 8:49 PM CDT
Astronomical Twilight 5:01 AM CDT 9:23 PM CDT
Moon 1:45 PM CDT (4/19) 2:38 AM CDT (4/19)
Length of Visible Light 14h 11m
Length of Day
13h 17m
First Quarter, 62% of the Moon is Illuminated
Apr 19
First Quarter
Apr 25
Full
May 2
Last Quarter
May 9
New
May 17
First Quarter

Hourly Weather History & Observations

Time (CDT) Temp. Windchill Dew Point Humidity Pressure Visibility Wind Dir Wind Speed Gust Speed Precip Events Conditions
12:15 AM 37.4 °F 28.2 °F 28.4 °F 70% 29.95 in 10.0 mi WNW 16.1 mph 27.6 mph N/A   Overcast
12:35 AM 37.4 °F 30.3 °F 26.6 °F 65% 29.95 in 10.0 mi WNW 10.4 mph 24.2 mph N/A   Overcast
12:55 AM 37.4 °F 29.3 °F 26.6 °F 65% 29.95 in 10.0 mi WNW 12.7 mph 23.0 mph N/A   Overcast
1:15 AM 37.4 °F 28.9 °F 26.6 °F 65% 29.95 in 10.0 mi WNW 13.8 mph 26.5 mph N/A   Overcast
1:35 AM 37.4 °F 28.9 °F 26.6 °F 65% 29.96 in 10.0 mi WNW 13.8 mph 26.5 mph N/A   Overcast
1:55 AM 37.4 °F 31.4 °F 26.6 °F 65% 29.95 in 10.0 mi West 8.1 mph - N/A   Overcast
2:15 AM 35.6 °F 26.2 °F 24.8 °F 65% 29.95 in 10.0 mi WNW 15.0 mph 24.2 mph N/A   Overcast
2:35 AM 35.6 °F 27.5 °F 23.0 °F 60% 29.96 in 10.0 mi West 11.5 mph 24.2 mph N/A   Overcast
2:55 AM 35.6 °F 28.0 °F 23.0 °F 60% 29.95 in 10.0 mi WNW 10.4 mph 26.5 mph N/A   Overcast
3:15 AM 35.6 °F 27.1 °F 23.0 °F 60% 29.95 in 10.0 mi WNW 12.7 mph 23.0 mph N/A   Overcast
3:35 AM 35.6 °F 28.0 °F 23.0 °F 60% 29.95 in 10.0 mi WNW 10.4 mph 23.0 mph N/A   Overcast
3:55 AM 35.6 °F 29.9 °F 23.0 °F 60% 29.95 in 10.0 mi WNW 6.9 mph 28.8 mph N/A   Overcast
4:15 AM 35.6 °F 27.5 °F 24.8 °F 65% 29.95 in 10.0 mi WNW 11.5 mph 23.0 mph N/A   Overcast
4:35 AM 35.6 °F 26.2 °F 24.8 °F 65% 29.95 in 10.0 mi WNW 15.0 mph 23.0 mph N/A   Overcast
4:55 AM 35.6 °F 26.6 °F 24.8 °F 65% 29.95 in 10.0 mi WNW 13.8 mph 23.0 mph N/A   Overcast
5:15 AM 35.6 °F 28.0 °F 24.8 °F 65% 29.95 in 10.0 mi WNW 10.4 mph 19.6 mph N/A   Overcast
5:55 AM 35.6 °F 28.6 °F 24.8 °F 65% 29.96 in 10.0 mi WNW 9.2 mph 19.6 mph N/A Rain Light Rain
6:15 AM 35.6 °F 26.2 °F 24.8 °F 65% 29.97 in 10.0 mi NW 15.0 mph 18.4 mph N/A   Mostly Cloudy
6:35 AM 35.6 °F 27.5 °F 24.8 °F 65% 29.99 in 10.0 mi WNW 11.5 mph 26.5 mph N/A   Overcast
6:51 AM 35.6 °F 27.1 °F 23.0 °F 60% 30.00 in 10.0 mi WNW 12.7 mph 24.2 mph N/A   Overcast
7:45 AM 35.6 °F 26.6 °F 23.0 °F 60% 30.02 in 10.0 mi WNW 13.8 mph 25.3 mph N/A   Overcast
8:45 AM 35.6 °F 28.6 °F 24.8 °F 65% 30.03 in 10.0 mi WNW 9.2 mph 20.7 mph N/A   Mostly Cloudy
9:45 AM 37.4 °F 29.8 °F 24.8 °F 60% 30.05 in 10.0 mi WNW 11.5 mph 20.7 mph N/A   Mostly Cloudy
10:58 AM 39.2 °F 31.6 °F 23.0 °F 52% 30.06 in 10.0 mi WNW 12.7 mph 24.2 mph N/A   Mostly Cloudy
11:57 AM 42.8 °F 34.8 °F 23.0 °F 46% 30.06 in 10.0 mi WNW 17.3 mph 24.2 mph N/A   Scattered Clouds
12:45 PM 44.6 °F 38.1 °F 19.4 °F 37% 30.06 in 10.0 mi WSW 13.8 mph 25.3 mph N/A   Clear
2:48 PM 50.0 °F - 19.4 °F 30% 30.05 in 10.0 mi WNW 17.3 mph 31.1 mph N/A   Partly Cloudy
3:50 PM 50.0 °F - 17.6 °F 28% 30.03 in 10.0 mi WNW 13.8 mph 19.6 mph N/A   Clear
4:51 PM 53.6 °F - 19.4 °F 26% 30.04 in 10.0 mi WNW 13.8 mph 23.0 mph N/A   Partly Cloudy
5:48 PM 51.8 °F - 23.0 °F 33% 30.06 in 10.0 mi WNW 16.1 mph 27.6 mph N/A   Scattered Clouds
6:47 PM 51.8 °F - 24.8 °F 35% 30.06 in 10.0 mi South 11.5 mph 17.3 mph N/A   Partly Cloudy
7:48 PM 48.2 °F - 24.8 °F 40% 30.06 in 10.0 mi West 6.9 mph - N/A   Partly Cloudy
8:46 PM 46.4 °F - 24.8 °F 43% 30.08 in 10.0 mi Calm Calm - N/A   Partly Cloudy
9:15 PM 44.6 °F - 24.8 °F 46% 30.09 in 10.0 mi Calm Calm - N/A   Clear
9:35 PM 42.8 °F - 26.6 °F 53% 30.09 in 10.0 mi Calm Calm - N/A   Clear
9:55 PM 44.6 °F - 26.6 °F 49% 30.10 in 10.0 mi Calm Calm - N/A   Clear
10:15 PM 44.6 °F - 24.8 °F 46% 30.11 in 10.0 mi Calm Calm - N/A   Clear
10:35 PM 44.6 °F - 26.6 °F 49% 30.11 in 10.0 mi Calm Calm - N/A   Clear
10:55 PM 44.6 °F - 26.6 °F 49% 30.11 in 10.0 mi Calm Calm - N/A   Clear
11:15 PM 42.8 °F - 26.6 °F 53% 30.11 in 10.0 mi Calm Calm - N/A   Clear
11:35 PM 42.8 °F - 26.6 °F 53% 30.11 in 10.0 mi Calm Calm - N/A   Clear
11:55 PM 41.0 °F - 26.6 °F 57% 30.11 in 10.0 mi Calm Calm - N/A   Clear